Time,TemperatureF,DewpointF,PressureIn,WindDirection,WindDirectionDegrees,WindSpeedMPH,WindSpeedGustMPH,Humidity,HourlyPrecipIn,Conditions,Clouds,dailyrainin,SoftwareType,DateUTC
2013-02-04 00:03:00,29.0,15.0,-100.00,NW,318,13.0,17.0,56,0.00,,,0.00,,2013-02-04 05:03:00,
2013-02-04 00:12:00,29.0,15.0,-100.00,NW,318,13.0,17.0,56,0.00,,,0.00,,2013-02-04 05:12:00,
2013-02-04 00:22:00,29.0,15.0,-100.00,NW,322,13.0,22.0,57,0.00,,,0.00,,2013-02-04 05:22:00,
2013-02-04 00:33:00,29.0,15.0,-100.00,NW,322,13.0,22.0,57,0.00,,,0.00,,2013-02-04 05:33:00,
2013-02-04 00:42:00,28.0,16.0,-100.00,NW,323,11.0,14.0,59,0.00,,,0.00,,2013-02-04 05:42:00,
2013-02-04 00:52:00,28.0,16.0,-100.00,NW,323,11.0,14.0,59,0.00,,,0.00,,2013-02-04 05:52:00,
2013-02-04 01:02:00,28.0,15.0,-100.00,NW,313,10.0,15.0,57,0.00,,,0.00,,2013-02-04 06:02:00,
2013-02-04 01:11:00,28.0,15.0,-100.00,NW,313,10.0,15.0,57,0.00,,,0.00,,2013-02-04 06:11:00,
2013-02-04 01:21:00,28.0,15.0,-100.00,NW,304,9.0,13.0,59,0.00,,,0.00,,2013-02-04 06:21:00,
2013-02-04 01:32:00,28.0,15.0,-100.00,NW,304,9.0,13.0,59,0.00,,,0.00,,2013-02-04 06:32:00,
2013-02-04 01:42:00,27.0,15.0,-100.00,NW,322,12.0,18.0,59,0.00,,,0.00,,2013-02-04 06:42:00,
2013-02-04 01:52:00,27.0,15.0,-100.00,NW,311,9.0,13.0,60,0.00,,,0.00,,2013-02-04 06:52:00,
2013-02-04 02:02:00,27.0,15.0,-100.00,NW,311,9.0,13.0,60,0.00,,,0.00,,2013-02-04 07:02:00,
2013-02-04 02:11:00,27.0,15.0,-100.00,NW,311,9.0,13.0,60,0.00,,,0.00,,2013-02-04 07:11:00,
2013-02-04 02:21:00,27.0,14.0,-100.00,NW,319,11.0,16.0,59,0.00,,,0.00,,2013-02-04 07:21:00,
2013-02-04 02:32:00,26.0,13.0,-100.00,NW,320,11.0,17.0,57,0.00,,,0.00,,2013-02-04 07:32:00,
2013-02-04 02:42:00,26.0,13.0,-100.00,NW,320,11.0,17.0,57,0.00,,,0.00,,2013-02-04 07:42:00,
2013-02-04 02:52:00,26.0,12.0,-100.00,NW,305,6.0,12.0,55,0.00,,,0.00,,2013-02-04 07:52:00,
2013-02-04 03:01:00,26.0,12.0,-100.00,NW,305,6.0,12.0,55,0.00,,,0.00,,2013-02-04 08:01:00,
2013-02-04 03:11:00,26.0,12.0,-100.00,NW,305,6.0,12.0,55,0.00,,,0.00,,2013-02-04 08:11:00,
2013-02-04 03:21:00,26.0,11.0,-100.00,NW,323,9.0,14.0,54,0.00,,,0.00,,2013-02-04 08:21:00,
2013-02-04 03:32:00,26.0,11.0,-100.00,NW,323,9.0,14.0,54,0.00,,,0.00,,2013-02-04 08:32:00,
2013-02-04 03:42:00,25.0,11.0,-100.00,NNW,339,9.0,11.0,55,0.00,,,0.00,,2013-02-04 08:42:00,
2013-02-04 03:52:00,25.0,11.0,-100.00,NNW,339,9.0,11.0,55,0.00,,,0.00,,2013-02-04 08:52:00,
2013-02-04 04:02:00,25.0,11.0,-100.00,NNW,343,9.0,11.0,55,0.00,,,0.00,,2013-02-04 09:02:00,
2013-02-04 04:11:00,25.0,11.0,-100.00,NNW,343,9.0,11.0,55,0.00,,,0.00,,2013-02-04 09:11:00,
2013-02-04 04:21:00,24.0,11.0,-100.00,NNW,332,8.0,10.0,55,0.00,,,0.00,,2013-02-04 09:21:00,
2013-02-04 04:32:00,25.0,11.0,-100.00,NNW,332,12.0,15.0,55,0.00,,,0.00,,2013-02-04 09:32:00,
2013-02-04 04:42:00,25.0,11.0,-100.00,NNW,332,12.0,15.0,55,0.00,,,0.00,,2013-02-04 09:42:00,
2013-02-04 04:52:00,25.0,11.0,-100.00,NNW,332,12.0,15.0,55,0.00,,,0.00,,2013-02-04 09:52:00,
2013-02-04 05:02:00,25.0,11.0,-100.00,NNW,332,12.0,15.0,55,0.00,,,0.00,,2013-02-04 10:02:00,
2013-02-04 05:21:00,24.0,11.0,-100.00,NNW,330,13.0,17.0,57,0.00,,,0.00,,2013-02-04 10:21:00,
2013-02-04 05:32:00,24.0,11.0,-100.00,NW,309,10.0,14.0,58,0.00,,,0.00,,2013-02-04 10:32:00,
2013-02-04 05:42:00,24.0,11.0,-100.00,NW,309,10.0,14.0,58,0.00,,,0.00,,2013-02-04 10:42:00,
2013-02-04 05:52:00,24.0,12.0,-100.00,NW,315,10.0,13.0,60,0.00,,,0.00,,2013-02-04 10:52:00,
2013-02-04 06:02:00,24.0,12.0,-100.00,NW,315,10.0,13.0,60,0.00,,,0.00,,2013-02-04 11:02:00,
2013-02-04 06:11:00,24.0,12.0,-100.00,NW,315,10.0,13.0,60,0.00,,,0.00,,2013-02-04 11:11:00,
2013-02-04 06:22:00,23.0,12.0,-100.00,NW,316,10.0,13.0,61,0.00,,,0.00,,2013-02-04 11:22:00,
2013-02-04 06:33:00,24.0,12.0,-100.00,NW,322,14.0,19.0,59,0.00,,,0.00,,2013-02-04 11:33:00,
2013-02-04 06:42:00,24.0,12.0,-100.00,NW,322,14.0,19.0,59,0.00,,,0.00,,2013-02-04 11:42:00,
2013-02-04 06:52:00,24.0,12.0,-100.00,NW,319,11.0,17.0,61,0.00,,,0.00,,2013-02-04 11:52:00,
2013-02-04 07:03:00,24.0,12.0,-100.00,NW,319,11.0,17.0,61,0.00,,,0.00,,2013-02-04 12:03:00,
2013-02-04 07:12:00,24.0,12.0,-100.00,NW,319,11.0,17.0,61,0.00,,,0.00,,2013-02-04 12:12:00,
2013-02-04 07:22:00,24.0,12.0,-100.00,NW,313,12.0,15.0,61,0.00,,,0.00,,2013-02-04 12:22:00,
2013-02-04 07:33:00,24.0,12.0,-100.00,NW,313,12.0,15.0,61,0.00,,,0.00,,2013-02-04 12:33:00,
2013-02-04 07:42:00,24.0,13.0,-100.00,NW,323,10.0,13.0,61,0.00,,,0.00,,2013-02-04 12:42:00,
2013-02-04 07:53:00,24.0,13.0,-100.00,NW,305,6.0,9.0,61,0.00,,,0.00,,2013-02-04 12:53:00,
2013-02-04 08:03:00,24.0,13.0,-100.00,NW,305,6.0,9.0,61,0.00,,,0.00,,2013-02-04 13:03:00,
2013-02-04 08:12:00,24.0,13.0,-100.00,NW,305,6.0,9.0,61,0.00,,,0.00,,2013-02-04 13:12:00,
2013-02-04 08:22:00,24.0,13.0,-100.00,SSW,198,2.0,3.0,62,0.00,,,0.00,,2013-02-04 13:22:00,
2013-02-04 08:33:00,23.0,13.0,-100.00,SSE,168,2.0,3.0,66,0.00,,,0.00,,2013-02-04 13:33:00,
2013-02-04 08:42:00,23.0,13.0,-100.00,SSE,168,2.0,3.0,66,0.00,,,0.00,,2013-02-04 13:42:00,
2013-02-04 08:52:00,23.0,13.0,-100.00,SSE,168,2.0,3.0,66,0.00,,,0.00,,2013-02-04 13:52:00,
2013-02-04 09:03:00,25.0,13.0,-100.00,NNW,343,2.0,3.0,62,0.00,,,0.00,,2013-02-04 14:03:00,
2013-02-04 09:12:00,25.0,13.0,-100.00,NNW,343,2.0,3.0,62,0.00,,,0.00,,2013-02-04 14:12:00,
2013-02-04 09:23:00,25.0,13.0,-100.00,NW,323,7.0,11.0,58,0.00,,,0.00,,2013-02-04 14:23:00,
2013-02-04 09:33:00,25.0,13.0,-100.00,NW,323,7.0,11.0,58,0.00,,,0.00,,2013-02-04 14:33:00,
2013-02-04 09:42:00,26.0,13.0,-100.00,West,281,3.0,7.0,57,0.00,,,0.00,,2013-02-04 14:42:00,
2013-02-04 09:53:00,26.0,13.0,-100.00,West,281,3.0,7.0,57,0.00,,,0.00,,2013-02-04 14:53:00,
2013-02-04 10:03:00,27.0,14.0,-100.00,NW,323,3.0,6.0,57,0.00,,,0.00,,2013-02-04 15:03:00,
2013-02-04 10:13:00,27.0,14.0,-100.00,NW,323,3.0,6.0,57,0.00,,,0.00,,2013-02-04 15:13:00,
2013-02-04 10:24:00,26.0,14.0,-100.00,NW,311,2.0,3.0,58,0.00,,,0.00,,2013-02-04 15:24:00,
2013-02-04 10:33:00,26.0,14.0,-100.00,NW,311,2.0,3.0,58,0.00,,,0.00,,2013-02-04 15:33:00,
2013-02-04 10:43:00,27.0,13.0,-100.00,WNW,282,2.0,3.0,56,0.00,,,0.00,,2013-02-04 15:43:00,
2013-02-04 10:53:00,28.0,14.0,-100.00,WSW,237,1.0,2.0,56,0.00,,,0.00,,2013-02-04 15:53:00,
2013-02-04 11:03:00,28.0,14.0,-100.00,WSW,237,1.0,2.0,56,0.00,,,0.00,,2013-02-04 16:03:00,
2013-02-04 11:11:00,28.0,14.0,-100.00,WSW,237,1.0,2.0,56,0.00,,,0.00,,2013-02-04 16:11:00,
2013-02-04 11:23:00,27.0,14.0,-100.00,SSE,162,4.0,5.0,56,0.00,,,0.00,,2013-02-04 16:23:00,
2013-02-04 11:33:00,27.0,14.0,-100.00,SSE,162,4.0,5.0,56,0.00,,,0.00,,2013-02-04 16:33:00,
2013-02-04 11:43:00,30.0,14.0,-100.00,WSW,243,2.0,4.0,52,0.00,,,0.00,,2013-02-04 16:43:00,
2013-02-04 11:52:00,30.0,14.0,-100.00,WSW,243,2.0,4.0,52,0.00,,,0.00,,2013-02-04 16:52:00,
2013-02-04 12:02:00,29.0,14.0,-100.00,South,176,5.0,7.0,53,0.00,,,0.00,,2013-02-04 17:02:00,
2013-02-04 12:12:00,29.0,14.0,-100.00,South,176,5.0,7.0,53,0.00,,,0.00,,2013-02-04 17:12:00,
2013-02-04 12:21:00,30.0,14.0,-100.00,SW,219,1.0,3.0,51,0.00,,,0.00,,2013-02-04 17:21:00,
2013-02-04 12:32:00,30.0,14.0,-100.00,South,191,4.0,5.0,50,0.00,,,0.00,,2013-02-04 17:32:00,
2013-02-04 12:42:00,30.0,15.0,-100.00,South,179,6.0,8.0,52,0.00,,,0.00,,2013-02-04 17:42:00,
2013-02-04 12:51:00,30.0,15.0,-100.00,South,179,6.0,8.0,52,0.00,,,0.00,,2013-02-04 17:51:00,
2013-02-04 13:03:00,31.0,16.0,-100.00,South,179,6.0,8.0,53,0.00,,,0.00,,2013-02-04 18:03:00,
2013-02-04 13:12:00,31.0,16.0,-100.00,South,179,6.0,8.0,53,0.00,,,0.00,,2013-02-04 18:12:00,
2013-02-04 13:22:00,31.0,17.0,-100.00,South,172,9.0,11.0,56,0.00,,,0.00,,2013-02-04 18:22:00,
2013-02-04 13:32:00,31.0,17.0,-100.00,South,172,9.0,11.0,56,0.00,,,0.00,,2013-02-04 18:32:00,
2013-02-04 13:42:00,31.0,17.0,-100.00,South,182,11.0,13.0,55,0.00,,,0.00,,2013-02-04 18:42:00,
2013-02-04 13:52:00,31.0,17.0,-100.00,South,182,11.0,13.0,55,0.00,,,0.00,,2013-02-04 18:52:00,
2013-02-04 14:02:00,32.0,17.0,-100.00,SSW,198,6.0,8.0,53,0.00,,,0.00,,2013-02-04 19:02:00,
2013-02-04 14:12:00,32.0,17.0,-100.00,SSW,198,6.0,8.0,53,0.00,,,0.00,,2013-02-04 19:12:00,
2013-02-04 14:22:00,33.0,17.0,-100.00,South,184,8.0,12.0,50,0.00,,,0.00,,2013-02-04 19:22:00,
2013-02-04 14:32:00,33.0,17.0,-100.00,South,184,8.0,12.0,50,0.00,,,0.00,,2013-02-04 19:32:00,
2013-02-04 14:42:00,34.0,17.0,-100.00,SSW,196,8.0,11.0,50,0.00,,,0.00,,2013-02-04 19:42:00,
2013-02-04 14:52:00,34.0,17.0,-100.00,SSW,196,8.0,11.0,50,0.00,,,0.00,,2013-02-04 19:52:00,
2013-02-04 15:02:00,35.0,19.0,-100.00,South,188,11.0,14.0,52,0.00,,,0.00,,2013-02-04 20:02:00,
2013-02-04 15:12:00,35.0,19.0,-100.00,South,188,11.0,14.0,52,0.00,,,0.00,,2013-02-04 20:12:00,
2013-02-04 15:22:00,36.0,19.0,-100.00,SSW,200,5.0,8.0,50,0.00,,,0.00,,2013-02-04 20:22:00,
2013-02-04 15:32:00,36.0,19.0,-100.00,SSW,200,5.0,8.0,50,0.00,,,0.00,,2013-02-04 20:32:00,
2013-02-04 15:42:00,36.0,18.0,-100.00,South,188,8.0,12.0,47,0.00,,,0.00,,2013-02-04 20:42:00,
2013-02-04 15:52:00,36.0,18.0,-100.00,South,188,8.0,12.0,47,0.00,,,0.00,,2013-02-04 20:52:00,
2013-02-04 16:03:00,37.0,18.0,-100.00,SSW,196,8.0,11.0,46,0.00,,,0.00,,2013-02-04 21:03:00,
2013-02-04 16:12:00,37.0,18.0,-100.00,SSW,196,8.0,11.0,46,0.00,,,0.00,,2013-02-04 21:12:00,
2013-02-04 16:23:00,37.0,19.0,-100.00,South,174,7.0,9.0,46,0.00,,,0.00,,2013-02-04 21:23:00,
2013-02-04 16:32:00,37.0,19.0,-100.00,South,174,7.0,9.0,46,0.00,,,0.00,,2013-02-04 21:32:00,
2013-02-04 16:43:00,37.0,19.0,-100.00,South,181,9.0,13.0,47,0.00,,,0.00,,2013-02-04 21:43:00,
2013-02-04 16:52:00,37.0,19.0,-100.00,South,181,9.0,13.0,47,0.00,,,0.00,,2013-02-04 21:52:00,
2013-02-04 17:03:00,38.0,18.0,-100.00,South,176,7.0,10.0,45,0.00,,,0.00,,2013-02-04 22:03:00,
2013-02-04 17:12:00,38.0,18.0,-100.00,South,176,7.0,10.0,45,0.00,,,0.00,,2013-02-04 22:12:00,
2013-02-04 17:21:00,37.0,18.0,-100.00,South,176,9.0,11.0,46,0.00,,,0.00,,2013-02-04 22:21:00,
2013-02-04 17:32:00,37.0,18.0,-100.00,South,176,9.0,11.0,46,0.00,,,0.00,,2013-02-04 22:32:00,
2013-02-04 17:42:00,37.0,18.0,-100.00,South,188,5.0,6.0,47,0.00,,,0.00,,2013-02-04 22:42:00,
2013-02-04 17:52:00,37.0,18.0,-100.00,South,188,5.0,6.0,47,0.00,,,0.00,,2013-02-04 22:52:00,
2013-02-04 18:02:00,36.0,18.0,-100.00,South,188,9.0,11.0,49,0.00,,,0.00,,2013-02-04 23:02:00,
2013-02-04 18:11:00,36.0,18.0,-100.00,South,188,9.0,11.0,49,0.00,,,0.00,,2013-02-04 23:11:00,
2013-02-04 18:22:00,36.0,19.0,-100.00,SSW,198,6.0,8.0,49,0.00,,,0.00,,2013-02-04 23:22:00,
2013-02-04 18:32:00,36.0,19.0,-100.00,SSW,198,6.0,8.0,49,0.00,,,0.00,,2013-02-04 23:32:00,
2013-02-04 18:42:00,36.0,19.0,-100.00,SSW,193,8.0,10.0,49,0.00,,,0.00,,2013-02-04 23:42:00,
2013-02-04 18:53:00,36.0,19.0,-100.00,SSW,193,8.0,10.0,49,0.00,,,0.00,,2013-02-04 23:53:00,
2013-02-04 19:02:00,36.0,19.0,-100.00,SSW,196,9.0,14.0,50,0.00,,,0.00,,2013-02-05 00:02:00,
2013-02-04 19:12:00,36.0,19.0,-100.00,SSW,196,9.0,14.0,50,0.00,,,0.00,,2013-02-05 00:12:00,
2013-02-04 19:22:00,35.0,19.0,-100.00,SW,234,2.0,4.0,51,0.00,,,0.00,,2013-02-05 00:22:00,
2013-02-04 19:32:00,35.0,19.0,-100.00,SW,234,2.0,4.0,51,0.00,,,0.00,,2013-02-05 00:32:00,
2013-02-04 19:42:00,34.0,20.0,-100.00,SW,234,1.0,2.0,55,0.00,,,0.00,,2013-02-05 00:42:00,
2013-02-04 19:52:00,34.0,20.0,-100.00,SW,234,1.0,2.0,55,0.00,,,0.00,,2013-02-05 00:52:00,
2013-02-04 20:02:00,35.0,19.0,-100.00,South,178,4.0,6.0,53,0.00,,,0.00,,2013-02-05 01:02:00,
2013-02-04 20:12:00,35.0,19.0,-100.00,South,178,4.0,6.0,53,0.00,,,0.00,,2013-02-05 01:12:00,
2013-02-04 20:22:00,35.0,20.0,-100.00,WSW,246,2.0,6.0,53,0.00,,,0.00,,2013-02-05 01:22:00,
2013-02-04 20:32:00,35.0,20.0,-100.00,WSW,246,2.0,6.0,53,0.00,,,0.00,,2013-02-05 01:32:00,
2013-02-04 20:42:00,32.0,21.0,-100.00,NNW,344,2.0,3.0,62,0.00,,,0.00,,2013-02-05 01:42:00,
2013-02-04 20:52:00,32.0,21.0,-100.00,NNW,344,2.0,3.0,62,0.00,,,0.00,,2013-02-05 01:52:00,
2013-02-04 21:02:00,36.0,20.0,-100.00,South,186,9.0,12.0,51,0.00,,,0.00,,2013-02-05 02:02:00,
2013-02-04 21:11:00,36.0,20.0,-100.00,South,186,9.0,12.0,51,0.00,,,0.00,,2013-02-05 02:11:00,
2013-02-04 21:22:00,35.0,20.0,-100.00,South,186,5.0,6.0,56,0.00,,,0.00,,2013-02-05 02:22:00,
2013-02-04 21:32:00,35.0,20.0,-100.00,South,186,5.0,6.0,56,0.00,,,0.00,,2013-02-05 02:32:00,
2013-02-04 21:42:00,34.0,20.0,-100.00,WNW,302,1.0,3.0,57,0.00,,,0.00,,2013-02-05 02:42:00,
2013-02-04 21:50:00,38.0,22.0,-100.00,SSW,199,6.0,9.0,52,0.00,,,0.00,,2013-02-05 02:50:00,
2013-02-04 21:52:00,34.0,20.0,-100.00,WNW,302,1.0,3.0,57,0.00,,,0.00,,2013-02-05 02:52:00,
2013-02-04 22:02:00,33.0,21.0,-100.00,NNW,343,1.0,2.0,61,0.00,,,0.00,,2013-02-05 03:02:00,
2013-02-04 22:11:00,33.0,21.0,-100.00,NNW,343,1.0,2.0,61,0.00,,,0.00,,2013-02-05 03:11:00,
2013-02-04 22:22:00,38.0,22.0,-100.00,SSW,199,6.0,9.0,52,0.00,,,0.00,,2013-02-05 03:22:00,
2013-02-04 22:32:00,38.0,22.0,-100.00,SSW,199,6.0,9.0,52,0.00,,,0.00,,2013-02-05 03:32:00,
2013-02-04 22:42:00,38.0,22.0,-100.00,SSW,199,6.0,9.0,52,0.00,,,0.00,,2013-02-05 03:42:00,
2013-02-04 23:01:00,36.0,21.0,-100.00,South,175,6.0,8.0,56,0.00,,,0.00,,2013-02-05 04:01:00,
2013-02-04 23:11:00,36.0,21.0,-100.00,South,175,6.0,8.0,56,0.00,,,0.00,,2013-02-05 04:11:00,
2013-02-04 23:22:00,36.0,21.0,-100.00,South,184,9.0,11.0,55,0.00,,,0.00,,2013-02-05 04:22:00,
2013-02-04 23:32:00,36.0,21.0,-100.00,South,184,9.0,11.0,55,0.00,,,0.00,,2013-02-05 04:32:00,
2013-02-04 23:42:00,36.0,22.0,-100.00,South,179,9.0,10.0,57,0.00,,,0.00,,2013-02-05 04:42:00,
2013-02-04 23:52:00,36.0,22.0,-100.00,South,179,9.0,10.0,57,0.00,,,0.00,,2013-02-05 04:52:00,